Change the Weather History Date:

Tuesday, July 9, 2013

  Actual Average Record
Temperature  
Mean Temperature 84 °F -  
Max Temperature 90 °F 87 °F 91 °F (2000)
Min Temperature 79 °F 78 °F 35 °F (2003)
Cooling Degree Days 20    
Growing Degree Days 34 (Base 50)    
Moisture  
Dew Point 78 °F    
Average Humidity 80    
Maximum Humidity 89    
Minimum Humidity 66    
Precipitation  
Precipitation 0.00 in - - ()
Sea Level Pressure  
Sea Level Pressure 30.03 in    
Wind  
Wind Speed 9 mph ()    
Max Wind Speed 13 mph    
Max Gust Speed -    
Visibility 6.2 miles    
Events      
Averages and records for this station are not official NWS values.
T = Trace of Precipitation, MM = Missing Value Source: Averaged Metar Reports

Daily Weather History Graph

Daily Weather History Graph

Search for Another Location

Airport or City:

Trip Planner

Search our weather history database for the weather conditions in past years. The results will help you decide how hot, cold, wet, or windy it might be!

Date:

Astronomy

Jul. 09, 2013 Rise Set
Actual Time 5:53 AM EST 7:07 PM EST
Civil Twilight 5:29 AM EST 7:31 PM EST
Nautical Twilight 5:00 AM EST 8:00 PM EST
Astronomical Twilight 4:31 AM EST 8:29 PM EST
Moon 7:00 AM EST (7/9) 8:04 PM EST (7/9)
Length of Visible Light 14h 02m
Length of Day
13h 13m
New Moon, 2% of the Moon is Illuminated
Jul 9
New Moon
Jul 15
First Quarter
Jul 22
Full
Jul 29
Last Quarter
Aug 6
New

Hourly Weather History & Observations

Time (EST) Temp. Heat Index Dew Point Humidity Pressure Visibility Wind Dir Wind Speed Gust Speed Precip Events Conditions
6:00 AM 82.4 °F 90.9 °F 77.0 °F 84% 30.01 in 6.2 mi ENE 10.4 mph - N/A   Scattered Clouds
7:00 AM 82 °F - 78 °F 85% 30.03 in 6 mi East 9.2 mph - -   Scattered Clouds
7:00 AM 82.4 °F 92.4 °F 78.8 °F 89% 30.01 in 6.2 mi East 9.2 mph - N/A   Partly Cloudy
8:00 AM 82.4 °F 92.4 °F 78.8 °F 89% 30.04 in 6.2 mi East 12.7 mph - N/A   Mostly Cloudy
9:00 AM 86.0 °F 96.9 °F 77.0 °F 74% 30.04 in 6.2 mi East 10.4 mph - N/A   Partly Cloudy
10:00 AM 86.0 °F 99.3 °F 78.8 °F 79% 30.04 in 6.2 mi ENE 12.7 mph - N/A   Partly Cloudy
11:00 AM 86.0 °F 99.3 °F 78.8 °F 79% 30.06 in 6.2 mi East 12.7 mph - N/A   Partly Cloudy
12:00 PM 86.0 °F 99.3 °F 78.8 °F 79% 30.06 in 6.2 mi ENE 12.7 mph - N/A   Scattered Clouds
1:00 PM 85 °F - 79 °F 78% 30.05 in 6 mi NE 12.7 mph - -   Partly Cloudy
1:00 PM 86.0 °F 99.3 °F 78.8 °F 79% 30.04 in 6.2 mi NE 12.7 mph - N/A   Scattered Clouds
2:00 PM 89.6 °F 108.2 °F 80.6 °F 75% 30.04 in 6.2 mi ENE 12.7 mph - N/A   Scattered Clouds
3:00 PM 89.6 °F 102.2 °F 77.0 °F 66% 30.01 in 6.2 mi SE 5.8 mph - N/A   Partly Cloudy
4:00 PM 87.8 °F 102.5 °F 78.8 °F 75% 30.01 in 6.2 mi ESE 6.9 mph - N/A   Scattered Clouds
5:00 PM 86.0 °F 99.3 °F 78.8 °F 79% 29.98 in 6.2 mi East 6.9 mph - N/A   Scattered Clouds
6:00 PM 86.0 °F 96.9 °F 77.0 °F 74% 30.01 in 6.2 mi East 6.9 mph - N/A   Partly Cloudy
7:00 PM 85 °F - 77 °F 72% 30.01 in 6 mi East 5.8 mph - -   Scattered Clouds
7:00 PM 84.2 °F 94.1 °F 77.0 °F 79% 30.01 in 6.2 mi East 5.8 mph - N/A   Partly Cloudy
8:00 PM 84.2 °F 96.1 °F 78.8 °F 84% 30.04 in 6.2 mi ENE 9.2 mph - N/A   Partly Cloudy
9:00 PM 84.2 °F 96.1 °F 78.8 °F 84% 30.04 in 6.2 mi ENE 10.4 mph - N/A   Scattered Clouds
10:00 PM 82.4 °F 92.4 °F 78.8 °F 89% 30.04 in 6.2 mi ENE 11.5 mph - N/A   Partly Cloudy